This is the latest recevied weather packets stored in our database for station/object DM4XI-13. If no packets are shown the sender has not sent any weather packets the latest 10 day(s).
| Time | Temp. | Humidity | Pressure | Rain* | Wind** | Luminosity | Snow |
|---|---|---|---|---|---|---|---|
| 1777880706 | 18.89° C | 45% | 1013.3 hPa | 0 mm | 0 m/s | 411 W/m² | - |
| 1777880646 | 18.89° C | 43% | 1013.2 hPa | 0 mm | 0.89 m/s, 249° | 416 W/m² | - |
| 1777880585 | 18.89° C | 43% | 1013.1 hPa | 0 mm | 0.45 m/s, 216° | 354 W/m² | - |
| 1777880524 | 18.89° C | 43% | 1013 hPa | 0 mm | 0.89 m/s, 248° | 205 W/m² | - |
| 1777880463 | 18.89° C | 42% | 1013.2 hPa | 0 mm | 1.34 m/s, 238° | 377 W/m² | - |
| 1777880402 | 18.89° C | 43% | 1013.2 hPa | 0 mm | 0.45 m/s, 294° | 319 W/m² | - |
| 1777880341 | 19.44° C | 43% | 1013.1 hPa | 0 mm | 1.34 m/s, 299° | 303 W/m² | - |
| 1777880280 | 19.44° C | 43% | 1013.1 hPa | 0 mm | 0.89 m/s, 317° | 214 W/m² | - |
| 1777880218 | 18.89° C | 44% | 1013.1 hPa | 0 mm | 0.89 m/s, 290° | 209 W/m² | - |
| 1777880158 | 18.89° C | 43% | 1013.1 hPa | 0 mm | 0 m/s | 209 W/m² | - |
| 1777880097 | 18.89° C | 42% | 1013 hPa | 0 mm | 0.45 m/s, 276° | 217 W/m² | - |
| 1777880036 | 19.44° C | 42% | 1013 hPa | 0 mm | 0.89 m/s, 302° | 222 W/m² | - |
| 1777879975 | 19.44° C | 42% | 1013 hPa | 0 mm | 0.89 m/s, 322° | 225 W/m² | - |
| 1777879914 | 19.44° C | 42% | 1013.1 hPa | 0 mm | 0.89 m/s, 269° | 236 W/m² | - |
| 1777879853 | 19.44° C | 41% | 1013 hPa | 0 mm | 0.45 m/s, 228° | 242 W/m² | - |
| 1777879792 | 19.44° C | 40% | 1012.9 hPa | 0 mm | 0.45 m/s, 336° | 244 W/m² | - |
| 1777879730 | 19.44° C | 40% | 1013 hPa | 0 mm | 0.89 m/s, 284° | 250 W/m² | - |
| 1777879669 | 20° C | 40% | 1013.1 hPa | 0 mm | 1.34 m/s, 324° | 246 W/m² | - |
| 1777879609 | 20° C | 41% | 1013.2 hPa | 0 mm | 1.34 m/s, 311° | 263 W/m² | - |
| 1777879548 | 20° C | 41% | 1013.1 hPa | 0 mm | 1.34 m/s, 311° | 246 W/m² | - |
| 1777879487 | 20° C | 42% | 1013 hPa | 0 mm | 0.89 m/s, 280° | 250 W/m² | - |
| 1777879426 | 19.44° C | 44% | 1013.1 hPa | 0 mm | 0.45 m/s, 275° | 288 W/m² | - |
| 1777879364 | 19.44° C | 45% | 1013 hPa | 0 mm | 0.45 m/s, 236° | 259 W/m² | - |
| 1777879304 | 19.44° C | 45% | 1013 hPa | 0 mm | 1.34 m/s, 304° | 269 W/m² | - |
| 1777879243 | 19.44° C | 45% | 1012.9 hPa | 0 mm | 0.45 m/s, 347° | 270 W/m² | - |
* Rain latest hour (hover to see other rain measurements)
** Current wind speed in m/s (hover to see current wind gust speed)